This demonstration page uses our WeatherBlox Daily Observations layout. Learn more.

Left ArrowRight Arrow

Hourly Observations for April 1, 2021

Temp ( °F °C ) Dew Point ( °F °C ) Humidity (%) Winds ( mph kmh ) Pressure ( in mb ) Visibility ( mi km ) Precip ( " mm )
12:53 am 00:53 Clear 32 0 18 -7.8 56 56 WSW 7 11 30.11 1020 10 16 0.00 0.00
1:53 am 01:53 Clear 40 4.4 19 -7.2 43 43 SW 15 24 30.07 1018 10 16 0.00 0.00
2:53 am 02:53 Clear 32 0 19 -7.2 59 59 WNW 5 7 30.07 1018 10 16 0.00 0.00
3:53 am 03:53 Clear 33 0.6 19 -7.2 56 56 W 6 9 30.04 1017 10 16 0.00 0.00
4:53 am 04:53 Clear 30 -1.1 19 -7.2 64 64 Calm 30.01 1016 10 16 0.00 0.00
5:53 am 05:53 Clear 33 0.6 19 -7.2 56 56 NW 3 6 30.00 1016 10 16 0.00 0.00
6:53 am 06:53 Clear 28 -2.2 18 -7.8 66 66 SW 10 17 29.98 1015 10 16 0.00 0.00
7:53 am 07:53 Sunny 39 3.9 21 -6.1 48 48 SW 10 17 29.96 1015 10 16 0.00 0.00
8:53 am 08:53 Sunny 45 7.2 22 -5.6 40 40 SW 12 19 29.93 1014 10 16 0.00 0.00
9:53 am 09:53 Sunny 53 11.7 18 -7.8 25 25 SW 23 37 29.90 1013 10 16 0.00 0.00
10:53 am 10:53 Sunny 54 12.2 17 -8.3 23 23 SW 24 39 29.88 1012 10 16 0.00 0.00
11:53 am 11:53 Sunny 57 13.9 18 -7.8 22 22 SW 25 41 29.85 1011 10 16 0.00 0.00
12:53 pm 12:53 Sunny 63 17.2 18 -7.8 17 17 SW 23 37 29.81 1010 10 16 0.00 0.00
1:53 pm 13:53 Sunny 69 20.6 12 -11.1 11 11 WSW 25 41 29.74 1007 10 16 0.00 0.00
2:53 pm 14:53 Sunny 70 21.1 14 -10 11 11 SW 23 37 29.72 1007 10 16 0.00 0.00
3:53 pm 15:53 Sunny 72 22.2 13 -10.6 10 10 SW 29 46 29.69 1005 10 16 0.00 0.00
4:53 pm 16:53 Sunny 71 21.7 14 -10 11 11 SW 21 33 29.67 1005 10 16 0.00 0.00
5:53 pm 17:53 Sunny 70 21.1 14 -10 11 11 SW 20 31 29.66 1005 10 16 0.00 0.00
6:53 pm 18:53 Sunny 69 20.6 14 -10 12 12 WSW 16 26 29.66 1004 10 16 0.00 0.00
7:53 pm 19:53 Clear 60 15.6 15 -9.4 17 17 W 12 19 29.67 1005 10 16 0.00 0.00
8:53 pm 20:53 Clear 58 14.4 18 -7.8 21 21 NW 9 15 29.68 1005 10 16 0.00 0.00
9:53 pm 21:53 Clear 51 10.6 20 -6.7 29 29 W 8 13 29.70 1006 10 16 0.00 0.00
10:53 pm 22:53 Clear 47 8.3 21 -6.1 36 36 SW 10 17 29.70 1006 10 16 0.00 0.00
11:53 pm 23:53 Clear 50 10 20 -6.7 30 30 WSW 10 17 29.71 1006 10 16 0.00 0.00

Powered by AerisWeather